Year,Month,Day,Hour,Minute,Value (Times are PST for temperature in C)
2016,08,11,00,00,15.90
2016,08,11,00,01,15.90
2016,08,11,00,02,15.80
2016,08,11,00,03,15.80
2016,08,11,00,04,15.80
2016,08,11,00,05,15.80
2016,08,11,00,06,15.80
2016,08,11,00,07,15.80
2016,08,11,00,08,15.80
2016,08,11,00,09,15.70
2016,08,11,00,10,15.70
2016,08,11,00,11,15.70
2016,08,11,00,12,15.60
2016,08,11,00,13,15.60
2016,08,11,00,14,15.60
2016,08,11,00,15,15.60
2016,08,11,00,16,15.50
2016,08,11,00,17,15.50
2016,08,11,00,18,15.50
2016,08,11,00,19,15.50
2016,08,11,00,20,15.50
2016,08,11,00,21,15.50
2016,08,11,00,22,15.50
2016,08,11,00,23,15.40
2016,08,11,00,24,15.40
2016,08,11,00,25,15.40
2016,08,11,00,26,15.40
2016,08,11,00,27,15.40
2016,08,11,00,28,15.40
2016,08,11,00,29,15.50
2016,08,11,00,30,15.50
2016,08,11,00,31,15.50
2016,08,11,00,32,15.60
2016,08,11,00,33,15.60
2016,08,11,00,34,15.70
2016,08,11,00,35,15.80
2016,08,11,00,36,15.80
2016,08,11,00,37,15.80
2016,08,11,00,38,15.80
2016,08,11,00,39,15.80
2016,08,11,00,40,15.90
2016,08,11,00,41,15.90
2016,08,11,00,42,16.00
2016,08,11,00,43,16.10
2016,08,11,00,44,16.10
2016,08,11,00,45,16.10
2016,08,11,00,46,16.10
2016,08,11,00,47,16.20
2016,08,11,00,48,16.20
2016,08,11,00,49,16.20
2016,08,11,00,50,16.20
2016,08,11,00,51,16.30
2016,08,11,00,52,16.30
2016,08,11,00,53,16.30
2016,08,11,00,54,16.30
2016,08,11,00,55,16.30
2016,08,11,00,56,16.40
2016,08,11,00,57,16.40
2016,08,11,00,58,16.40
2016,08,11,00,59,16.40
2016,08,11,01,00,16.40
2016,08,11,01,01,16.40
2016,08,11,01,02,16.40
2016,08,11,01,03,16.40
2016,08,11,01,04,16.40
2016,08,11,01,05,16.40
2016,08,11,01,06,16.40
2016,08,11,01,07,16.40
2016,08,11,01,08,16.40
2016,08,11,01,09,16.40
2016,08,11,01,10,16.40
2016,08,11,01,11,16.40
2016,08,11,01,12,16.40
2016,08,11,01,13,16.40
2016,08,11,01,14,16.40
2016,08,11,01,15,16.40
2016,08,11,01,16,16.40
2016,08,11,01,17,16.40
2016,08,11,01,18,16.40
2016,08,11,01,19,16.40
2016,08,11,01,20,16.30
2016,08,11,01,21,16.30
2016,08,11,01,22,16.30
2016,08,11,01,23,16.30
2016,08,11,01,24,16.30
2016,08,11,01,25,16.30
2016,08,11,01,26,16.30
2016,08,11,01,27,16.30
2016,08,11,01,28,16.30
2016,08,11,01,29,16.30
2016,08,11,01,30,16.20
2016,08,11,01,31,16.20
2016,08,11,01,32,16.20
2016,08,11,01,33,16.20
2016,08,11,01,34,16.20
2016,08,11,01,35,16.20
2016,08,11,01,36,16.10
2016,08,11,01,37,16.10
2016,08,11,01,38,16.10
2016,08,11,01,39,16.10
2016,08,11,01,40,16.10
2016,08,11,01,41,16.10
2016,08,11,01,42,16.10
2016,08,11,01,43,16.10
2016,08,11,01,44,16.10
2016,08,11,01,45,16.10
2016,08,11,01,46,16.10
2016,08,11,01,47,16.00
2016,08,11,01,48,15.90
2016,08,11,01,49,15.90
2016,08,11,01,50,15.90
2016,08,11,01,51,15.80
2016,08,11,01,52,15.80
2016,08,11,01,53,15.80
2016,08,11,01,54,15.80
2016,08,11,01,55,15.80
2016,08,11,01,56,15.80
2016,08,11,01,57,15.80
2016,08,11,01,58,15.80
2016,08,11,01,59,15.80
2016,08,11,02,00,15.80
2016,08,11,02,01,15.80
2016,08,11,02,02,15.90
2016,08,11,02,03,15.90
2016,08,11,02,04,15.90
2016,08,11,02,05,16.00
2016,08,11,02,06,16.10
2016,08,11,02,07,16.10
2016,08,11,02,08,16.10
2016,08,11,02,09,16.10
2016,08,11,02,10,16.10
2016,08,11,02,11,16.10
2016,08,11,02,12,16.10
2016,08,11,02,13,16.10
2016,08,11,02,14,16.10
2016,08,11,02,15,16.10
2016,08,11,02,16,16.10
2016,08,11,02,17,16.10
2016,08,11,02,18,16.10
2016,08,11,02,19,16.10
2016,08,11,02,20,16.10
2016,08,11,02,21,16.10
2016,08,11,02,22,16.10
2016,08,11,02,23,16.10
2016,08,11,02,24,16.10
2016,08,11,02,25,16.10
2016,08,11,02,26,16.10
2016,08,11,02,27,16.10
2016,08,11,02,28,16.10
2016,08,11,02,29,16.10
2016,08,11,02,30,16.10
2016,08,11,02,31,16.10
2016,08,11,02,32,16.10
2016,08,11,02,33,16.00
2016,08,11,02,34,15.90
2016,08,11,02,35,15.90
2016,08,11,02,36,15.90
2016,08,11,02,37,15.90
2016,08,11,02,38,15.80
2016,08,11,02,39,15.80
2016,08,11,02,40,15.80
2016,08,11,02,41,15.80
2016,08,11,02,42,15.80
2016,08,11,02,43,15.80
2016,08,11,02,44,15.80
2016,08,11,02,45,15.80
2016,08,11,02,46,15.80
2016,08,11,02,47,15.70
2016,08,11,02,48,15.70
2016,08,11,02,49,15.70
2016,08,11,02,50,15.70
2016,08,11,02,51,15.70
2016,08,11,02,52,15.60
2016,08,11,02,53,15.60
2016,08,11,02,54,15.60
2016,08,11,02,55,15.60
2016,08,11,02,56,15.60
2016,08,11,02,57,15.50
2016,08,11,02,58,15.50
2016,08,11,02,59,15.50
2016,08,11,03,00,15.50
2016,08,11,03,01,15.40
2016,08,11,03,02,15.40
2016,08,11,03,03,15.40
2016,08,11,03,04,15.40
2016,08,11,03,05,15.30
2016,08,11,03,06,15.30
2016,08,11,03,07,15.30
2016,08,11,03,08,15.30
2016,08,11,03,09,15.30
2016,08,11,03,10,15.30
2016,08,11,03,11,15.20
2016,08,11,03,12,15.20
2016,08,11,03,13,15.20
2016,08,11,03,14,15.20
2016,08,11,03,15,15.20
2016,08,11,03,16,15.10
2016,08,11,03,17,15.10
2016,08,11,03,18,15.10
2016,08,11,03,19,15.10
2016,08,11,03,20,15.10
2016,08,11,03,21,15.10
2016,08,11,03,22,15.10
2016,08,11,03,23,15.00
2016,08,11,03,24,15.00
2016,08,11,03,25,15.00
2016,08,11,03,26,15.00
2016,08,11,03,27,14.90
2016,08,11,03,28,14.90
2016,08,11,03,29,14.90
2016,08,11,03,30,14.90
2016,08,11,03,31,14.80
2016,08,11,03,32,14.80
2016,08,11,03,33,14.80
2016,08,11,03,34,14.80
2016,08,11,03,35,14.80
2016,08,11,03,36,14.80
2016,08,11,03,37,14.70
2016,08,11,03,38,14.70
2016,08,11,03,39,14.70
2016,08,11,03,40,14.70
2016,08,11,03,41,14.60
2016,08,11,03,42,14.60
2016,08,11,03,43,14.60
2016,08,11,03,44,14.60
2016,08,11,03,45,14.60
2016,08,11,03,46,14.60
2016,08,11,03,47,14.50
2016,08,11,03,48,14.50
2016,08,11,03,49,14.50
2016,08,11,03,50,14.50
2016,08,11,03,51,14.50
2016,08,11,03,52,14.50
2016,08,11,03,53,14.40
2016,08,11,03,54,14.40
2016,08,11,03,55,14.40
2016,08,11,03,56,14.30
2016,08,11,03,57,14.30
2016,08,11,03,58,14.30
2016,08,11,03,59,14.30
2016,08,11,04,00,14.20
2016,08,11,04,01,14.20
2016,08,11,04,02,14.20
2016,08,11,04,03,14.20
2016,08,11,04,04,14.20
2016,08,11,04,05,14.20
2016,08,11,04,06,14.20
2016,08,11,04,07,14.10
2016,08,11,04,08,14.10
2016,08,11,04,09,14.10
2016,08,11,04,10,14.00
2016,08,11,04,11,14.00
2016,08,11,04,12,14.00
2016,08,11,04,13,13.90
2016,08,11,04,14,13.90
2016,08,11,04,15,13.90
2016,08,11,04,16,13.90
2016,08,11,04,17,13.90
2016,08,11,04,18,13.90
2016,08,11,04,19,13.90
2016,08,11,04,20,13.90
2016,08,11,04,21,13.90
2016,08,11,04,22,13.90
2016,08,11,04,23,13.90
2016,08,11,04,24,13.90
2016,08,11,04,25,13.80
2016,08,11,04,26,13.80
2016,08,11,04,27,13.80
2016,08,11,04,28,13.80
2016,08,11,04,29,13.80
2016,08,11,04,30,13.80
2016,08,11,04,31,13.80
2016,08,11,04,32,13.80
2016,08,11,04,33,13.90
2016,08,11,04,34,13.90
2016,08,11,04,35,13.90
2016,08,11,04,36,13.90
2016,08,11,04,37,13.90
2016,08,11,04,38,14.00
2016,08,11,04,39,14.00
2016,08,11,04,40,14.00
2016,08,11,04,41,14.00
2016,08,11,04,42,13.90
2016,08,11,04,43,13.90
2016,08,11,04,44,13.90
2016,08,11,04,45,13.90
2016,08,11,04,46,13.80
2016,08,11,04,47,13.80
2016,08,11,04,48,13.80
2016,08,11,04,49,13.80
2016,08,11,04,50,13.80
2016,08,11,04,51,13.80
2016,08,11,04,52,13.80
2016,08,11,04,53,13.80
2016,08,11,04,54,13.80
2016,08,11,04,55,13.80
2016,08,11,04,56,13.80
2016,08,11,04,57,13.70
2016,08,11,04,58,13.70
2016,08,11,04,59,13.70
2016,08,11,05,00,13.70
2016,08,11,05,01,13.70
2016,08,11,05,02,13.70
2016,08,11,05,03,13.70
2016,08,11,05,04,13.70
2016,08,11,05,05,13.70
2016,08,11,05,06,13.70
2016,08,11,05,07,13.70
2016,08,11,05,08,13.70
2016,08,11,05,09,13.70
2016,08,11,05,10,13.70
2016,08,11,05,11,13.70
2016,08,11,05,12,13.60
2016,08,11,05,13,13.60
2016,08,11,05,14,13.60
2016,08,11,05,15,13.60
2016,08,11,05,16,13.60
2016,08,11,05,17,13.60
2016,08,11,05,18,13.60
2016,08,11,05,19,13.60
2016,08,11,05,20,13.60
2016,08,11,05,21,13.60
2016,08,11,05,22,13.60
2016,08,11,05,23,13.60
2016,08,11,05,24,13.60
2016,08,11,05,25,13.60
2016,08,11,05,26,13.50
2016,08,11,05,27,13.50
2016,08,11,05,28,13.50
2016,08,11,05,29,13.50
2016,08,11,05,30,13.50
2016,08,11,05,31,13.50
2016,08,11,05,32,13.50
2016,08,11,05,33,13.50
2016,08,11,05,34,13.50
2016,08,11,05,35,13.40
2016,08,11,05,36,13.40
2016,08,11,05,37,13.40
2016,08,11,05,38,13.30
2016,08,11,05,39,13.30
2016,08,11,05,40,13.30
2016,08,11,05,41,13.30
2016,08,11,05,42,13.30
2016,08,11,05,43,13.40
2016,08,11,05,44,13.40
2016,08,11,05,45,13.40
2016,08,11,05,46,13.40
2016,08,11,05,47,13.40
2016,08,11,05,48,13.40
2016,08,11,05,49,13.40
2016,08,11,05,50,13.40
2016,08,11,05,51,13.40
2016,08,11,05,52,13.40
2016,08,11,05,53,13.30
2016,08,11,05,54,13.30
2016,08,11,05,55,13.30
2016,08,11,05,56,13.30
2016,08,11,05,57,13.30
2016,08,11,05,58,13.30
2016,08,11,05,59,13.30
2016,08,11,06,00,13.30
2016,08,11,06,01,13.30
2016,08,11,06,02,13.20
2016,08,11,06,03,13.20
2016,08,11,06,04,13.20
2016,08,11,06,05,13.20
2016,08,11,06,06,13.20
2016,08,11,06,07,13.10
2016,08,11,06,08,13.10
2016,08,11,06,09,13.10
2016,08,11,06,10,13.10
2016,08,11,06,11,13.10
2016,08,11,06,12,13.00
2016,08,11,06,13,13.00
2016,08,11,06,14,13.00
2016,08,11,06,15,13.00
2016,08,11,06,16,13.00
2016,08,11,06,17,13.00
2016,08,11,06,18,13.00
2016,08,11,06,19,13.00
2016,08,11,06,20,13.00
2016,08,11,06,21,13.00
2016,08,11,06,22,13.00
2016,08,11,06,23,13.00
2016,08,11,06,24,13.00
2016,08,11,06,25,13.10
2016,08,11,06,26,13.10
2016,08,11,06,27,13.10
2016,08,11,06,28,13.10
2016,08,11,06,29,13.10
2016,08,11,06,30,13.10
2016,08,11,06,31,13.10
2016,08,11,06,32,13.10
2016,08,11,06,33,13.10
2016,08,11,06,34,13.20
2016,08,11,06,35,13.20
2016,08,11,06,36,13.20
2016,08,11,06,37,13.20
2016,08,11,06,38,13.20
2016,08,11,06,39,13.20
2016,08,11,06,40,13.20
2016,08,11,06,41,13.20
2016,08,11,06,42,13.20
2016,08,11,06,43,13.20
2016,08,11,06,44,13.30
2016,08,11,06,45,13.30
2016,08,11,06,46,13.40
2016,08,11,06,47,13.50
2016,08,11,06,48,13.50
2016,08,11,06,49,13.60
2016,08,11,06,50,13.60
2016,08,11,06,51,13.60
2016,08,11,06,52,13.60
2016,08,11,06,53,13.60
2016,08,11,06,54,13.70
2016,08,11,06,55,13.70
2016,08,11,06,56,13.70
2016,08,11,06,57,13.80
2016,08,11,06,58,13.90
2016,08,11,06,59,13.90
2016,08,11,07,00,14.00
2016,08,11,07,01,14.10
2016,08,11,07,02,14.20
2016,08,11,07,03,14.20
2016,08,11,07,04,14.20
2016,08,11,07,05,14.20
2016,08,11,07,06,14.20
2016,08,11,07,07,14.30
2016,08,11,07,08,14.30
2016,08,11,07,09,14.30
2016,08,11,07,10,14.40
2016,08,11,07,11,14.40
2016,08,11,07,12,14.40
2016,08,11,07,13,14.50
2016,08,11,07,14,14.50
2016,08,11,07,15,14.60
2016,08,11,07,16,14.70
2016,08,11,07,17,14.80
2016,08,11,07,18,14.90
2016,08,11,07,19,15.00
2016,08,11,07,20,15.10
2016,08,11,07,21,15.20
2016,08,11,07,22,15.20
2016,08,11,07,23,15.30
2016,08,11,07,24,15.30
2016,08,11,07,25,15.30
2016,08,11,07,26,15.30
2016,08,11,07,27,15.30
2016,08,11,07,28,15.30
2016,08,11,07,29,15.40
2016,08,11,07,30,15.50
2016,08,11,07,31,15.60
2016,08,11,07,32,15.70
2016,08,11,07,33,15.80
2016,08,11,07,34,15.80
2016,08,11,07,35,15.90
2016,08,11,07,36,16.10
2016,08,11,07,37,16.10
2016,08,11,07,38,16.10
2016,08,11,07,39,16.10
2016,08,11,07,40,16.20
2016,08,11,07,41,16.20
2016,08,11,07,42,16.30
2016,08,11,07,43,16.40
2016,08,11,07,44,16.40
2016,08,11,07,45,16.60
2016,08,11,07,46,16.60
2016,08,11,07,47,16.70
2016,08,11,07,48,16.70
2016,08,11,07,49,16.70
2016,08,11,07,50,16.70
2016,08,11,07,51,16.70
2016,08,11,07,52,16.80
2016,08,11,07,53,16.90
2016,08,11,07,54,16.90
2016,08,11,07,55,17.00
2016,08,11,07,56,17.10
2016,08,11,07,57,17.20
2016,08,11,07,58,17.20
2016,08,11,07,59,17.30
2016,08,11,08,00,17.30
2016,08,11,08,01,17.30
2016,08,11,08,02,17.30
2016,08,11,08,03,17.30
2016,08,11,08,04,17.30
2016,08,11,08,05,17.40
2016,08,11,08,06,17.40
2016,08,11,08,07,17.40
2016,08,11,08,08,17.50
2016,08,11,08,09,17.50
2016,08,11,08,10,17.60
2016,08,11,08,11,17.60
2016,08,11,08,12,17.70
2016,08,11,08,13,17.70
2016,08,11,08,14,17.80
2016,08,11,08,15,17.80
2016,08,11,08,16,17.90
2016,08,11,08,17,17.90
2016,08,11,08,18,17.90
2016,08,11,08,19,17.90
2016,08,11,08,20,18.00
2016,08,11,08,21,18.10
2016,08,11,08,22,18.10
2016,08,11,08,23,18.20
2016,08,11,08,24,18.20
2016,08,11,08,25,18.20
2016,08,11,08,26,18.20
2016,08,11,08,27,18.20
2016,08,11,08,28,18.20
2016,08,11,08,29,18.20
2016,08,11,08,30,18.20
2016,08,11,08,31,18.20
2016,08,11,08,32,18.20
2016,08,11,08,33,18.30
2016,08,11,08,34,18.40
2016,08,11,08,35,18.40
2016,08,11,08,36,18.50
2016,08,11,08,37,18.60
2016,08,11,08,38,18.70
2016,08,11,08,39,18.80
2016,08,11,08,40,18.90
2016,08,11,08,41,19.00
2016,08,11,08,42,19.10
2016,08,11,08,43,19.20
2016,08,11,08,44,19.30
2016,08,11,08,45,19.30
2016,08,11,08,46,19.40
2016,08,11,08,47,19.40
2016,08,11,08,48,19.50
2016,08,11,08,49,19.50
2016,08,11,08,50,19.50
2016,08,11,08,51,19.60
2016,08,11,08,52,19.60
2016,08,11,08,53,19.60
2016,08,11,08,54,19.70
2016,08,11,08,55,19.70
2016,08,11,08,56,19.80
2016,08,11,08,57,19.80
2016,08,11,08,58,19.90
2016,08,11,08,59,19.90
2016,08,11,09,00,19.90
2016,08,11,09,01,19.90
2016,08,11,09,02,20.00
2016,08,11,09,03,20.10
2016,08,11,09,04,20.20
2016,08,11,09,05,20.20
2016,08,11,09,06,20.20
2016,08,11,09,07,20.20
2016,08,11,09,08,20.20
2016,08,11,09,09,20.20
2016,08,11,09,10,20.20
2016,08,11,09,11,20.20
2016,08,11,09,12,20.10
2016,08,11,09,13,20.10
2016,08,11,09,14,20.10
2016,08,11,09,15,20.10
2016,08,11,09,16,20.20
2016,08,11,09,17,20.20
2016,08,11,09,18,20.20
2016,08,11,09,19,20.20
2016,08,11,09,20,20.20
2016,08,11,09,21,20.20
2016,08,11,09,22,20.30
2016,08,11,09,23,20.30
2016,08,11,09,24,20.30
2016,08,11,09,25,20.30
2016,08,11,09,26,20.30
2016,08,11,09,27,20.30
2016,08,11,09,28,20.30
2016,08,11,09,29,20.30
2016,08,11,09,30,20.30
2016,08,11,09,31,20.30
2016,08,11,09,32,20.40
2016,08,11,09,33,20.40
2016,08,11,09,34,20.40
2016,08,11,09,35,20.40
2016,08,11,09,36,20.40
2016,08,11,09,37,20.40
2016,08,11,09,38,20.40
2016,08,11,09,39,20.40
2016,08,11,09,40,20.40
2016,08,11,09,41,20.40
2016,08,11,09,42,20.40
2016,08,11,09,43,20.40
2016,08,11,09,44,20.40
2016,08,11,09,45,20.50
2016,08,11,09,46,20.50
2016,08,11,09,47,20.50
2016,08,11,09,48,20.50
2016,08,11,09,49,20.50
2016,08,11,09,50,20.60
2016,08,11,09,51,20.60
2016,08,11,09,52,20.60
2016,08,11,09,53,20.60
2016,08,11,09,54,20.60
2016,08,11,09,55,20.70
2016,08,11,09,56,20.70
2016,08,11,09,57,20.80
2016,08,11,09,58,20.80
2016,08,11,09,59,20.80
2016,08,11,10,00,20.80
2016,08,11,10,01,20.80
2016,08,11,10,02,20.80
2016,08,11,10,03,20.90
2016,08,11,10,04,20.90
2016,08,11,10,05,20.90
2016,08,11,10,06,21.00
2016,08,11,10,07,21.00
2016,08,11,10,08,21.10
2016,08,11,10,09,21.10
2016,08,11,10,10,21.10
2016,08,11,10,11,21.00
2016,08,11,10,12,21.00
2016,08,11,10,13,21.00
2016,08,11,10,14,21.00
2016,08,11,10,15,21.00
2016,08,11,10,16,21.00
2016,08,11,10,17,21.00
2016,08,11,10,18,21.00
2016,08,11,10,19,21.00
2016,08,11,10,20,21.10
2016,08,11,10,21,21.10
2016,08,11,10,22,21.10
2016,08,11,10,23,21.10
2016,08,11,10,24,21.20
2016,08,11,10,25,21.20
2016,08,11,10,26,21.20
2016,08,11,10,27,21.20
2016,08,11,10,28,21.20
2016,08,11,10,29,21.10
2016,08,11,10,30,21.10
2016,08,11,10,31,21.20
2016,08,11,10,32,21.20
2016,08,11,10,33,21.30
2016,08,11,10,34,21.30
2016,08,11,10,35,21.30
2016,08,11,10,36,21.30
2016,08,11,10,37,21.40
2016,08,11,10,38,21.40
2016,08,11,10,39,21.50
2016,08,11,10,40,21.60
2016,08,11,10,41,21.60
2016,08,11,10,42,21.60
2016,08,11,10,43,21.70
2016,08,11,10,44,21.70
2016,08,11,10,45,21.80
2016,08,11,10,46,21.80
2016,08,11,10,47,21.80
2016,08,11,10,48,21.80
2016,08,11,10,49,21.80
2016,08,11,10,50,21.90
2016,08,11,10,51,21.90
2016,08,11,10,52,21.80
2016,08,11,10,53,21.80
2016,08,11,10,54,21.70
2016,08,11,10,55,21.70
2016,08,11,10,56,21.70
2016,08,11,10,57,21.70
2016,08,11,10,58,21.70
2016,08,11,10,59,21.70
2016,08,11,11,00,21.70
2016,08,11,11,01,21.70
2016,08,11,11,02,21.70
2016,08,11,11,03,21.70
2016,08,11,11,04,21.80
2016,08,11,11,05,21.80
2016,08,11,11,06,21.80
2016,08,11,11,07,21.90
2016,08,11,11,08,21.90
2016,08,11,11,09,21.90
2016,08,11,11,10,21.90
2016,08,11,11,11,22.00
2016,08,11,11,12,22.00
2016,08,11,11,13,22.00
2016,08,11,11,14,22.10
2016,08,11,11,15,22.10
2016,08,11,11,16,22.10
2016,08,11,11,17,22.20
2016,08,11,11,18,22.20
2016,08,11,11,19,22.20
2016,08,11,11,20,22.10
2016,08,11,11,21,22.10
2016,08,11,11,22,22.10
2016,08,11,11,23,22.00
2016,08,11,11,24,22.00
2016,08,11,11,25,22.00
2016,08,11,11,26,22.00
2016,08,11,11,27,22.10
2016,08,11,11,28,22.10
2016,08,11,11,29,22.20
2016,08,11,11,30,22.20
2016,08,11,11,31,22.30
2016,08,11,11,32,22.30
2016,08,11,11,33,22.30
2016,08,11,11,34,22.30
2016,08,11,11,35,22.20
2016,08,11,11,36,22.20
2016,08,11,11,37,22.20
2016,08,11,11,38,22.20
2016,08,11,11,39,22.20
2016,08,11,11,40,22.20
2016,08,11,11,41,22.20
2016,08,11,11,42,22.20
2016,08,11,11,43,22.20
2016,08,11,11,44,22.30
2016,08,11,11,45,22.30
2016,08,11,11,46,22.30
2016,08,11,11,47,22.20
2016,08,11,11,48,22.30
2016,08,11,11,49,22.20
2016,08,11,11,50,22.20
2016,08,11,11,51,22.10
2016,08,11,11,52,22.20
2016,08,11,11,53,22.20
2016,08,11,11,54,22.20
2016,08,11,11,55,22.30
2016,08,11,11,56,22.30
2016,08,11,11,57,22.20
2016,08,11,11,58,22.30
2016,08,11,11,59,22.30
2016,08,11,12,00,22.30
2016,08,11,12,01,22.40
2016,08,11,12,02,22.40
2016,08,11,12,03,22.50
2016,08,11,12,04,22.50
2016,08,11,12,05,22.50
2016,08,11,12,06,22.50
2016,08,11,12,07,22.50
2016,08,11,12,08,22.50
2016,08,11,12,09,22.50
2016,08,11,12,10,22.50
2016,08,11,12,11,22.60
2016,08,11,12,12,22.60
2016,08,11,12,13,22.70
2016,08,11,12,14,22.70
2016,08,11,12,15,22.80
2016,08,11,12,16,22.90
2016,08,11,12,17,22.90
2016,08,11,12,18,22.90
2016,08,11,12,19,22.90
2016,08,11,12,20,22.90
2016,08,11,12,21,22.90
2016,08,11,12,22,22.90
2016,08,11,12,23,22.90
2016,08,11,12,24,22.90
2016,08,11,12,25,22.90
2016,08,11,12,26,22.90
2016,08,11,12,27,22.90
2016,08,11,12,28,22.90
2016,08,11,12,29,22.90
2016,08,11,12,30,22.90
2016,08,11,12,31,22.90
2016,08,11,12,32,23.00
2016,08,11,12,33,23.10
2016,08,11,12,34,23.20
2016,08,11,12,35,23.30
2016,08,11,12,36,23.30
2016,08,11,12,37,23.30
2016,08,11,12,38,23.30
2016,08,11,12,39,23.40
2016,08,11,12,40,23.40
2016,08,11,12,41,23.30
2016,08,11,12,42,23.30
2016,08,11,12,43,23.40
2016,08,11,12,44,23.40
2016,08,11,12,45,23.60
2016,08,11,12,46,23.60
2016,08,11,12,47,23.60
2016,08,11,12,48,23.60
2016,08,11,12,49,23.60
2016,08,11,12,50,23.60
2016,08,11,12,51,23.70
2016,08,11,12,52,23.70
2016,08,11,12,53,23.60
2016,08,11,12,54,23.50
2016,08,11,12,55,23.40
2016,08,11,12,56,23.40
2016,08,11,12,57,23.30
2016,08,11,12,58,23.30
2016,08,11,12,59,23.30
2016,08,11,13,00,23.30
2016,08,11,13,01,23.30
2016,08,11,13,02,23.20
2016,08,11,13,03,23.20
2016,08,11,13,04,23.20
2016,08,11,13,05,23.30
2016,08,11,13,06,23.30
2016,08,11,13,07,23.40
2016,08,11,13,08,23.50
2016,08,11,13,09,23.60
2016,08,11,13,10,23.60
2016,08,11,13,11,23.60
2016,08,11,13,12,23.60
2016,08,11,13,13,23.60
2016,08,11,13,14,23.70
2016,08,11,13,15,23.70
2016,08,11,13,16,23.70
2016,08,11,13,17,23.80
2016,08,11,13,18,23.90
2016,08,11,13,19,24.00
2016,08,11,13,20,24.10
2016,08,11,13,21,24.10
2016,08,11,13,22,24.10
2016,08,11,13,23,24.10
2016,08,11,13,24,24.00
2016,08,11,13,25,23.90
2016,08,11,13,26,24.00
2016,08,11,13,27,24.10
2016,08,11,13,28,24.10
2016,08,11,13,29,24.10
2016,08,11,13,30,24.10
2016,08,11,13,31,24.10
2016,08,11,13,32,24.10
2016,08,11,13,33,24.00
2016,08,11,13,34,24.10
2016,08,11,13,35,24.10
2016,08,11,13,36,24.10
2016,08,11,13,37,24.20
2016,08,11,13,38,24.30
2016,08,11,13,39,24.30
2016,08,11,13,40,24.20
2016,08,11,13,41,24.20
2016,08,11,13,42,24.20
2016,08,11,13,43,24.20
2016,08,11,13,44,24.10
2016,08,11,13,45,24.10
2016,08,11,13,46,24.10
2016,08,11,13,47,24.20
2016,08,11,13,48,24.30
2016,08,11,13,49,24.40
2016,08,11,13,50,24.40
2016,08,11,13,51,24.40
2016,08,11,13,52,24.30
2016,08,11,13,53,24.30
2016,08,11,13,54,24.30
2016,08,11,13,55,24.30
2016,08,11,13,56,24.40
2016,08,11,13,57,24.40
2016,08,11,13,58,24.50
2016,08,11,13,59,24.50
2016,08,11,14,00,24.50
2016,08,11,14,01,24.60
2016,08,11,14,02,24.70
2016,08,11,14,03,24.70
2016,08,11,14,04,24.60
2016,08,11,14,05,24.60
2016,08,11,14,06,24.50
2016,08,11,14,07,24.50
2016,08,11,14,08,24.50
2016,08,11,14,09,24.50
2016,08,11,14,10,24.60
2016,08,11,14,11,24.60
2016,08,11,14,12,24.60
2016,08,11,14,13,24.60
2016,08,11,14,14,24.50
2016,08,11,14,15,24.50
2016,08,11,14,16,24.40
2016,08,11,14,17,24.50
2016,08,11,14,18,24.50
2016,08,11,14,19,24.50
2016,08,11,14,20,24.50
2016,08,11,14,21,24.50
2016,08,11,14,22,24.50
2016,08,11,14,23,24.50
2016,08,11,14,24,24.60
2016,08,11,14,25,24.70
2016,08,11,14,26,24.70
2016,08,11,14,27,24.70
2016,08,11,14,28,24.70
2016,08,11,14,29,24.70
2016,08,11,14,30,24.80
2016,08,11,14,31,24.70
2016,08,11,14,32,24.80
2016,08,11,14,33,24.90
2016,08,11,14,34,24.90
2016,08,11,14,35,25.00
2016,08,11,14,36,25.00
2016,08,11,14,37,25.10
2016,08,11,14,38,25.20
2016,08,11,14,39,25.20
2016,08,11,14,40,25.30
2016,08,11,14,41,25.30
2016,08,11,14,42,25.30
2016,08,11,14,43,25.30
2016,08,11,14,44,25.20
2016,08,11,14,45,25.10
2016,08,11,14,46,25.10
2016,08,11,14,47,25.00
2016,08,11,14,48,25.00
2016,08,11,14,49,25.00
2016,08,11,14,50,25.00
2016,08,11,14,51,25.00
2016,08,11,14,52,24.90
2016,08,11,14,53,25.00
2016,08,11,14,54,25.00
2016,08,11,14,55,25.10
2016,08,11,14,56,25.10
2016,08,11,14,57,25.10
2016,08,11,14,58,25.20
2016,08,11,14,59,25.20
2016,08,11,15,00,25.30
2016,08,11,15,01,25.40
2016,08,11,15,02,25.30
2016,08,11,15,03,25.30
2016,08,11,15,04,25.20
2016,08,11,15,05,25.20
2016,08,11,15,06,25.20
2016,08,11,15,07,25.20
2016,08,11,15,08,25.20
2016,08,11,15,09,25.30
2016,08,11,15,10,25.30
2016,08,11,15,11,25.40
2016,08,11,15,12,25.40
2016,08,11,15,13,25.40
2016,08,11,15,14,25.40
2016,08,11,15,15,25.30
2016,08,11,15,16,25.30
2016,08,11,15,17,25.30
2016,08,11,15,18,25.30
2016,08,11,15,19,25.30
2016,08,11,15,20,25.30
2016,08,11,15,21,25.30
2016,08,11,15,22,25.30
2016,08,11,15,23,25.30
2016,08,11,15,24,25.30
2016,08,11,15,25,25.40
2016,08,11,15,26,25.40
2016,08,11,15,27,25.50
2016,08,11,15,28,25.50
2016,08,11,15,29,25.50
2016,08,11,15,30,25.50
2016,08,11,15,31,25.50
2016,08,11,15,32,25.60
2016,08,11,15,33,25.60
2016,08,11,15,34,25.60
2016,08,11,15,35,25.60
2016,08,11,15,36,25.60
2016,08,11,15,37,25.60
2016,08,11,15,38,25.60
2016,08,11,15,39,25.70
2016,08,11,15,40,25.70
2016,08,11,15,41,25.80
2016,08,11,15,42,25.70
2016,08,11,15,43,25.70
2016,08,11,15,44,25.60
2016,08,11,15,45,25.60
2016,08,11,15,46,25.60
2016,08,11,15,47,25.50
2016,08,11,15,48,25.50
2016,08,11,15,49,25.40
2016,08,11,15,50,25.30
2016,08,11,15,51,25.30
2016,08,11,15,52,25.30
2016,08,11,15,53,25.30
2016,08,11,15,54,25.30
2016,08,11,15,55,25.30
2016,08,11,15,56,25.40
2016,08,11,15,57,25.40
2016,08,11,15,58,25.40
2016,08,11,15,59,25.50
2016,08,11,16,00,25.50
2016,08,11,16,01,25.60
2016,08,11,16,02,25.60
2016,08,11,16,03,25.60
2016,08,11,16,04,25.50
2016,08,11,16,05,25.50
2016,08,11,16,06,25.50
2016,08,11,16,07,25.50
2016,08,11,16,08,25.50
2016,08,11,16,09,25.50
2016,08,11,16,10,25.50
2016,08,11,16,11,25.50
2016,08,11,16,12,25.60
2016,08,11,16,13,25.70
2016,08,11,16,14,25.80
2016,08,11,16,15,25.70
2016,08,11,16,16,25.60
2016,08,11,16,17,25.60
2016,08,11,16,18,25.50
2016,08,11,16,19,25.50
2016,08,11,16,20,25.50
2016,08,11,16,21,25.50
2016,08,11,16,22,25.50
2016,08,11,16,23,25.40
2016,08,11,16,24,25.40
2016,08,11,16,25,25.40
2016,08,11,16,26,25.50
2016,08,11,16,27,25.60
2016,08,11,16,28,25.70
2016,08,11,16,29,25.80
2016,08,11,16,30,25.90
2016,08,11,16,31,25.90
2016,08,11,16,32,26.00
2016,08,11,16,33,26.00
2016,08,11,16,34,25.90
2016,08,11,16,35,25.80
2016,08,11,16,36,25.70
2016,08,11,16,37,25.70
2016,08,11,16,38,25.70
2016,08,11,16,39,25.60
2016,08,11,16,40,25.50
2016,08,11,16,41,25.40
2016,08,11,16,42,25.30
2016,08,11,16,43,25.30
2016,08,11,16,44,25.20
2016,08,11,16,45,25.30
2016,08,11,16,46,25.30
2016,08,11,16,47,25.30
2016,08,11,16,48,25.30
2016,08,11,16,49,25.30
2016,08,11,16,50,25.30
2016,08,11,16,51,25.30
2016,08,11,16,52,25.20
2016,08,11,16,53,25.20
2016,08,11,16,54,25.20
2016,08,11,16,55,25.20
2016,08,11,16,56,25.30
2016,08,11,16,57,25.40
2016,08,11,16,58,25.40
2016,08,11,16,59,25.40
2016,08,11,17,00,25.40
2016,08,11,17,01,25.30
2016,08,11,17,02,25.20
2016,08,11,17,03,25.20
2016,08,11,17,04,25.20
2016,08,11,17,05,25.20
2016,08,11,17,06,25.20
2016,08,11,17,07,25.20
2016,08,11,17,08,25.20
2016,08,11,17,09,25.20
2016,08,11,17,10,25.20
2016,08,11,17,11,25.20
2016,08,11,17,12,25.20
2016,08,11,17,13,25.20
2016,08,11,17,14,25.30
2016,08,11,17,15,25.30
2016,08,11,17,16,25.30
2016,08,11,17,17,25.30
2016,08,11,17,18,25.20
2016,08,11,17,19,25.10